Retour au catalogue

DELTA 1 DEB

ActifSSO
NORAD 7012·DEBRIS·🇺🇸 United States

Lancé Nov 6, 1973 depuis Vandenberg Space Force Base

Loading…

Prochains Passages (prochaines 24 heures)

TLE

FraisSource: Space-Track

Époque: Sep 14, 2026, 15:01 UTC

1 07012U 73086C   26257.62618169  .00000029  00000-0  49584-3 0  9999
2 07012 101.7753 213.6254 0059817 316.1303 219.5282 12.47743191405621

Suivez DELTA 1 DEB en temps réel avec AllMySat

Download on the App Store